AirNav   Air Wisconsin Up To $57,000 Bonus
 
 1069 users online  

60IS Nelson Private Airport
Browns, Illinois, USA

GOING TO BROWNS?


FAA INFORMATION EFFECTIVE 31 DECEMBER 2020

Location

FAA Identifier: 60IS
Lat/Long: 38-24-02.1750N 087-59-19.1190W
38-24.036250N 087-59.318650W
38.4006042,-87.9886442
(estimated)
Elevation: 420 ft. / 128 m (estimated)
Variation: 00E (1985)
From city: 1 mile N of BROWNS, IL
Time zone: UTC -6 (UTC -5 during Daylight Saving Time)
Zip code: 62815

Airport Operations

Airport use: Private use. Permission required prior to landing
Activation date: 03/1988
Control tower: no
ARTCC: INDIANAPOLIS CENTER
FSS: COLUMBIA FLIGHT SERVICE STATION
Attendance: CONTINUOUS
Wind indicator: yes
Segmented circle: no

Airport Communications

WX AWOS-3 at AJG (17 nm NE): 134.900 (618-948-2184)
WX AWOS-3 at CUL (20 nm S): 118.425 (618-382-3760)
WX AWOS-3 at FWC (20 nm W): 119.425 (618-847-4709)

Nearby radio navigation aids

VOR radial/distance  VOR name  Freq  Var
SAMr135/6.8SAMSVILLE VOR/DME116.6003E
PXVr336/30.3POCKET CITY VORTAC113.3003E
BIBr140/38.8BIBLE GROVE VORTAC109.0003E

 
NDB name  Hdg/Dist  Freq  Var  ID
WAYNE COUNTY087/19.825701WFWC ..-. .-- -.-.
OLNEY159/20.927203WOLY --- .-.. -.--

Airport Services

Runway Information

Runway 16/34

Dimensions: 4000 x 100 ft. / 1219 x 30 m
Surface: turf
RUNWAY 16  RUNWAY 34
Traffic pattern: leftleft
Obstructions: 15 ft. road8 ft. crops

Airport Ownership and Management from official FAA records

Ownership: Privately-owned
Owner: DWIGHT NELSON
889 COUNTY ROAD 1000 NORTH
BROWNS, IL 62818
Phone 618-446-5150
Manager: DWIGHT NELSON
889 COUNTY ROAD 1000 NORTH
BROWNS, IL 62818
Phone 618-446-5150

Airport Operational Statistics

Aircraft based on the field: 1
Single engine airplanes: 1
    

Additional Remarks

FOR CD CTC EVANSVILLE APCH AT 812-436-4690, WHEN APCH CLSD CTC INDIANAPOLIS ARTCC AT 317-247-2411.

Instrument Procedures

There are no published instrument procedures at 60IS.

Some nearby airports with instrument procedures:

KAJG - Mount Carmel Municipal Airport (17 nm NE)
KCUL - Carmi Municipal Airport (20 nm S)
KFWC - Fairfield Municipal Airport (20 nm W)
KOLY - Olney-Noble Airport (21 nm NW)
KFOA - Flora Municipal Airport (27 nm NW)
 
Loc | Ops | Rwys | IFR | FBO | Links
Com | Nav | Svcs | Stats | Notes
Area around 60IS (Nelson Private Airport)
 
Road maps at: MapQuest Bing Google
 
Aerial photo
No photo
 
Sectional chart

 
Airport distance calculator
Flying to Nelson Private Airport? Find the distance to fly.

From to 60IS

Sunrise and sunset
Times for 21-Jan-2021
 Local
(UTC-6)
 Zulu
(UTC)
Morning civil twilight06:3812:38
Sunrise07:0613:06
Sunset17:0123:01
Evening civil twilight17:2923:29

Current date and time
Zulu (UTC)  22-Jan-2021 00:43:09
Local (UTC-6)  21-Jan-2021 18:43:09
 
METAR
KAJG 
17nm NE 
220015Z AUTO 26006KT 10SM CLR 04/M04 A2992 RMK AO2 T00381040
KCUL 
20nm S 
220015Z AUTO 24005KT 10SM CLR 04/M02 A2993 RMK AO2
KFWC 
20nm W 
220015Z AUTO 00000KT 10SM CLR 05/M01 A2992 RMK AO1 T00521015
KOLY 
21nm NW 
220015Z AUTO 25004KT 10SM CLR 07/M03 A2993 RMK AO2 T00681033
KFOA 
27nm NW 
220015Z AUTO 26005KT 10SM CLR 07/M03 A2993 RMK AO2
KLWV 
29nm NE 
212353Z AUTO 24006KT 10SM CLR 06/M03 A2992 RMK AO2 SLP134 T00611028 10122 20061 53010
KEVV 
31nm SE 
212354Z 25003KT 10SM CLR 05/M01 A2994 RMK AO2 SLP140 T00501011 10117 20044 53008
TAF
KEVV 
31nm SE 
211730Z 2118/2218 26006KT P6SM SCT250 FM220700 32006KT P6SM SCT250 FM221000 34008KT P6SM SCT250
NOTAMs
Click for the latest NOTAMs
NOTAMs are issued by the DoD/FAA and will open in a separate window not controlled by AirNav.

 

 
 

Would you like to see your business listed on this page?

 If your business provides an interesting product or service to pilots, flight crews, aircraft, or users of the Nelson Private Airport, you should consider listing it here.  To start the listing process, click on the button below
 
Add a business
 

Other Pages about Nelson Private Airport

Update a link
 
Copyright © AirNav, LLC. All rights reserved. Privacy Policy  Contact